Hourly Weather Gola

Today, 12 May, Wednesday

Time Temperature Precipitation Wind Pressure Humidity
00:00 +18°C° 0 mm 4 mps 744 mmHg 77%
01:00 +18°C° 0 mm 4 mps 744 mmHg 79%
02:00 +17°C° 0 mm 3 mps 744 mmHg 84%
03:00 +16°C° 0 mm 3 mps 744 mmHg 88%
04:00 +16°C° 0 mm 3 mps 745 mmHg 93%
05:00 +16°C° 0 mm 3 mps 745 mmHg 91%
06:00 +17°C° 0 mm 3 mps 745 mmHg 88%
07:00 +18°C° 0 mm 4 mps 746 mmHg 86%
08:00 +18°C° 0 mm 4 mps 746 mmHg 86%
09:00 +18°C° 0 mm 3 mps 746 mmHg 85%
10:00 +18°C° 0 mm 3 mps 747 mmHg 85%
11:00 +18°C° 0 mm 3 mps 746 mmHg 82%
12:00 +19°C° 0 mm 2 mps 746 mmHg 79%
13:00 +20°C° 0 mm 2 mps 746 mmHg 76%
14:00 +20°C° 0 mm 2 mps 746 mmHg 77%
15:00 +20°C° 0 mm 2 mps 746 mmHg 77%
16:00 +20°C° 0 mm 2 mps 745 mmHg 78%
17:00 +19°C° 0.8 mm 2 mps 745 mmHg 83%
18:00 +18°C° 0.8 mm 2 mps 745 mmHg 87%
19:00 +18°C° 0.8 mm 2 mps 744 mmHg 92%
20:00 +17°C° 2.3 mm 3 mps 744 mmHg 93%
21:00 +16°C° 2.3 mm 3 mps 744 mmHg 95%
22:00 +16°C° 2.3 mm 3 mps 743 mmHg 97%
23:00 +14°C° 0.4 mm 3 mps 743 mmHg 97%

Tomorrow, 13 May, Thursday

Time Temperature Precipitation Wind Pressure Humidity
00:00 +14°C° 0.4 mm 3 mps 743 mmHg 98%
01:00 +15°C° 0.4 mm 2 mps 743 mmHg 98%
02:00 +15°C° 0.4 mm 2 mps 742 mmHg 97%
03:00 +15°C° 0.4 mm 2 mps 742 mmHg 97%
04:00 +14°C° 0.4 mm 3 mps 742 mmHg 97%
05:00 +15°C° 0.4 mm 2 mps 742 mmHg 96%
06:00 +15°C° 0.4 mm 2 mps 742 mmHg 96%
07:00 +14°C° 0.4 mm 2 mps 742 mmHg 96%
08:00 +15°C° 0.1 mm 2 mps 742 mmHg 93%
09:00 +15°C° 0.1 mm 2 mps 742 mmHg 91%
10:00 +15°C° 0.1 mm 2 mps 742 mmHg 89%
11:00 +16°C° 0.2 mm 2 mps 742 mmHg 86%
12:00 +16°C° 0.2 mm 2 mps 741 mmHg 83%
13:00 +17°C° 0.2 mm 3 mps 741 mmHg 80%
14:00 +16°C° 0 mm 3 mps 741 mmHg 83%
15:00 +15°C° 0 mm 4 mps 741 mmHg 85%
16:00 +14°C° 0 mm 4 mps 741 mmHg 87%
17:00 +13°C° 0 mm 4 mps 741 mmHg 89%
18:00 +12°C° 0 mm 5 mps 742 mmHg 90%
19:00 +10°C° 0 mm 5 mps 742 mmHg 92%
20:00 +10°C° 0 mm 5 mps 742 mmHg 92%
21:00 +10°C° 0 mm 5 mps 742 mmHg 92%
22:00 +9°C° 0 mm 5 mps 742 mmHg 92%
23:00 +9°C° 0.1 mm 5 mps 742 mmHg 92%

Day after tomorrow, 14 May, Friday

Time Temperature Precipitation Wind Pressure Humidity
00:00 +9°C° 0.1 mm 5 mps 742 mmHg 92%
01:00 +9°C° 0.1 mm 5 mps 743 mmHg 92%
02:00 +9°C° 0.1 mm 5 mps 743 mmHg 93%
03:00 +8°C° 0.1 mm 5 mps 743 mmHg 93%
04:00 +8°C° 0.1 mm 5 mps 743 mmHg 93%
05:00 +8°C° 0.6 mm 5 mps 743 mmHg 93%
06:00 +8°C° 0.6 mm 5 mps 743 mmHg 94%
07:00 +8°C° 0.6 mm 5 mps 744 mmHg 94%
08:00 +8°C° 0.5 mm 5 mps 744 mmHg 94%
09:00 +8°C° 0.5 mm 5 mps 744 mmHg 93%
10:00 +8°C° 0.5 mm 5 mps 745 mmHg 92%
11:00 +9°C° 0.1 mm 5 mps 745 mmHg 88%
12:00 +9°C° 0.1 mm 5 mps 745 mmHg 85%
13:00 +10°C° 0.1 mm 6 mps 745 mmHg 81%
14:00 +11°C° 0 mm 6 mps 746 mmHg 77%
15:00 +13°C° 0 mm 5 mps 746 mmHg 73%
16:00 +14°C° 0 mm 5 mps 746 mmHg 69%
17:00 +13°C° 0 mm 4 mps 746 mmHg 73%
18:00 +12°C° 0 mm 3 mps 746 mmHg 78%
19:00 +12°C° 0 mm 2 mps 746 mmHg 82%
20:00 +10°C° 0 mm 2 mps 746 mmHg 84%
21:00 +10°C° 0 mm 1 mps 747 mmHg 87%
22:00 +9°C° 0 mm 1 mps 747 mmHg 89%
23:00 +9°C° 0 mm 1 mps 747 mmHg 90%

15 May, Saturday

Time Temperature Precipitation Wind Pressure Humidity
00:00 +8°C° 0 mm 1 mps 747 mmHg 91%
01:00 +8°C° 0 mm 1 mps 747 mmHg 92%
02:00 +8°C° 0 mm 1 mps 747 mmHg 92%
03:00 +8°C° 0 mm 1 mps 747 mmHg 92%
04:00 +6°C° 0 mm 0 mps 748 mmHg 92%
05:00 +8°C° 0 mm 0 mps 748 mmHg 87%
06:00 +11°C° 0 mm 1 mps 748 mmHg 83%
07:00 +12°C° 0 mm 1 mps 748 mmHg 79%
08:00 +13°C° 0 mm 0 mps 748 mmHg 74%
09:00 +14°C° 0 mm 0 mps 748 mmHg 70%
10:00 +16°C° 0 mm 0 mps 748 mmHg 65%
11:00 +16°C° 0.4 mm 0 mps 748 mmHg 64%
12:00 +19°C° 0.4 mm 1 mps 748 mmHg 63%
13:00 +19°C° 0.4 mm 1 mps 747 mmHg 62%
14:00 +19°C° 0.4 mm 1 mps 747 mmHg 63%
15:00 +19°C° 0.4 mm 1 mps 747 mmHg 64%
16:00 +19°C° 0.4 mm 1 mps 747 mmHg 65%
17:00 +18°C° 0.6 mm 1 mps 747 mmHg 71%
18:00 +16°C° 0.6 mm 1 mps 747 mmHg 78%
19:00 +14°C° 0.6 mm 1 mps 747 mmHg 84%
20:00 +14°C° 0.3 mm 1 mps 747 mmHg 86%
21:00 +14°C° 0.3 mm 1 mps 747 mmHg 87%
22:00 +13°C° 0.3 mm 1 mps 747 mmHg 88%
23:00 +13°C° 1.5 mm 1 mps 747 mmHg 91%

16 May, Sunday

Time Temperature Precipitation Wind Pressure Humidity
00:00 +13°C° 1.5 mm 2 mps 747 mmHg 94%
01:00 +12°C° 1.5 mm 2 mps 747 mmHg 96%
02:00 +12°C° 0.4 mm 1 mps 747 mmHg 95%
03:00 +11°C° 0.4 mm 1 mps 747 mmHg 94%
04:00 +11°C° 0.4 mm 1 mps 747 mmHg 94%
05:00 +12°C° 0 mm 1 mps 747 mmHg 91%
06:00 +12°C° 0 mm 1 mps 748 mmHg 88%
07:00 +13°C° 0 mm 1 mps 748 mmHg 86%
08:00 +14°C° 0 mm 1 mps 748 mmHg 79%
09:00 +15°C° 0 mm 1 mps 748 mmHg 72%
10:00 +17°C° 0 mm 2 mps 748 mmHg 65%
11:00 +17°C° 0.3 mm 2 mps 747 mmHg 64%
12:00 +17°C° 0.3 mm 2 mps 747 mmHg 63%
13:00 +18°C° 0.3 mm 2 mps 747 mmHg 62%
14:00 +18°C° 0.5 mm 2 mps 747 mmHg 64%
15:00 +17°C° 0.5 mm 3 mps 747 mmHg 65%
16:00 +17°C° 0.5 mm 3 mps 747 mmHg 66%
17:00 +16°C° 0.2 mm 3 mps 747 mmHg 72%
18:00 +15°C° 0.2 mm 2 mps 747 mmHg 79%
19:00 +13°C° 0.2 mm 2 mps 747 mmHg 85%
20:00 +12°C° 0 mm 2 mps 747 mmHg 86%
21:00 +10°C° 0 mm 2 mps 747 mmHg 87%
22:00 +9°C° 0 mm 2 mps 747 mmHg 89%
23:00 +9°C° 0 mm 2 mps 747 mmHg 91%

17 May, Monday

Time Temperature Precipitation Wind Pressure Humidity
00:00 +8°C° 0 mm 2 mps 747 mmHg 92%
01:00 +8°C° 0 mm 3 mps 747 mmHg 94%
02:00 +7°C° 0 mm 3 mps 747 mmHg 94%
03:00 +7°C° 0 mm 3 mps 747 mmHg 95%
04:00 +7°C° 0 mm 3 mps 747 mmHg 95%
05:00 +7°C° 0 mm 4 mps 747 mmHg 90%
06:00 +10°C° 0 mm 4 mps 748 mmHg 85%
07:00 +11°C° 0 mm 4 mps 748 mmHg 80%
08:00 +12°C° 0 mm 4 mps 748 mmHg 74%
09:00 +14°C° 0 mm 4 mps 747 mmHg 68%
10:00 +15°C° 0 mm 5 mps 747 mmHg 62%
11:00 +17°C° 0.1 mm 4 mps 747 mmHg 60%
12:00 +17°C° 0.1 mm 4 mps 747 mmHg 59%
13:00 +17°C° 0.1 mm 3 mps 747 mmHg 58%
14:00 +17°C° 0 mm 3 mps 747 mmHg 60%
15:00 +17°C° 0 mm 3 mps 747 mmHg 61%
16:00 +17°C° 0 mm 3 mps 747 mmHg 62%
17:00 +16°C° 0.2 mm 3 mps 747 mmHg 70%
18:00 +15°C° 0.2 mm 2 mps 747 mmHg 77%
19:00 +13°C° 0.2 mm 2 mps 747 mmHg 84%
20:00 +12°C° 0.1 mm 2 mps 747 mmHg 87%
21:00 +10°C° 0.1 mm 3 mps 747 mmHg 91%
22:00 +9°C° 0.1 mm 3 mps 747 mmHg 94%
23:00 +9°C° 0 mm 3 mps 747 mmHg 94%
Show more